• Processing (Info)

  • MPEC 2023-K88 : 2023 JG6

    The following Minor Planet Electronic Circular may be linked-to from your own Web pages, but must not otherwise be redistributed electronically.

    A form allowing access to any MPEC is at the bottom of this page.


    Read MPEC 2023-K87 Read MPEC 2023-K89


    M.P.E.C. 2023-K88                                  Issued 2023 May 22, 14:20 UT
    
         The Minor Planet Electronic Circulars contain information on unusual
             minor planets, routine data on comets and natural satellites,
             and occasional editorial announcements.  They are published
        on behalf of Division F of the International Astronomical Union by the
              Minor Planet Center, Smithsonian Astrophysical Observatory,
                              Cambridge, MA 02138, U.S.A.
    			  
                 Prepared using the Tamkin Foundation Computer Network
    
                                  MPC@CFA.HARVARD.EDU
                URL https://www.minorplanetcenter.net/    ISSN 1523-6714
    
                                    2023 JG6                                 
    
    
    Observations:
         K23J06G* C2023 05 13.40693615 20 09.296+01 01 57.67         21.56wXEK088F52
         K23J06G  C2023 05 13.41921215 20 08.842+01 01 51.69         21.68wXEK088F52
         K23J06G  C2023 05 13.43154615 20 08.369+01 01 46.02         21.58wXEK088F52
         K23J06G  C2023 05 21.41861715 16 33.229-00 40 04.20         21.59wXEK088F51
         K23J06G  C2023 05 21.44343115 16 31.960-00 40 30.88         21.47wXEK088F51
         K23J06G  C2023 05 21.45583615 16 31.375-00 40 44.90         21.30wXEK088F51
         K23J06G  C2023 05 21.51817015 16 28.536-00 41 54.64         21.30GVEK088F51
         K23J06G  C2023 05 21.51880915 16 28.509-00 41 55.59         21.01GVEK088F51
         K23J06G 2C2023 05 21.93246815 16 19.048-00 49 53.87         19.7 GVEK088J04
         K23J06G 2C2023 05 21.94239315 16 18.607-00 50 05.28         20.8 GVEK088J04
         K23J06G KC2023 05 22.19676015 16 09.93 -00 55 12.9          21.8 VuEK088H21
         K23J06G KC2023 05 22.20158015 16 10.704-00 55 14.05         20.62GVEK088I52
         K23J06G KC2023 05 22.20301915 16 09.65 -00 55 19.8          21.9 VuEK088H21
         K23J06G KC2023 05 22.20503015 16 10.567-00 55 18.12         21.38GVEK088I52
         K23J06G KC2023 05 22.20765515 16 09.47 -00 55 25.4          21.3 VuEK088H21
         K23J06G KC2023 05 22.20845915 16 10.340-00 55 22.12         21.16GVEK088I52
         K23J06G KC2023 05 22.22013115 16 09.862-00 55 36.19         21.09GVEK088I52
         K23J06G 1C2023 05 22.30987215 16 05.696-00 57 23.76         21.52GVEK088G96
         K23J06G 1C2023 05 22.31549115 16 05.426-00 57 30.53         20.70GVEK088G96
         K23J06G 1C2023 05 22.32109615 16 05.164-00 57 37.22         20.91GVEK088G96
         K23J06G 1C2023 05 22.32669915 16 04.926-00 57 44.60         21.27GVEK088G96
         K23J06G  C2023 05 22.41336715 16 02.881-00 59 21.40         21.24GVEK088F51
         K23J06G  C2023 05 22.41417915 16 02.844-00 59 22.32         21.13GVEK088F51
         K23J06G  C2023 05 22.43067115 16 02.030-00 59 42.53         21.05GVEK088F51
    
    Observer details:
    F51 Pan-STARRS 1, Haleakala.  Observers J. Bulger, T. Lowe, P. Minguez, A.
        Schultz, I. Smith, K. Chambers.  Measurers K. Chambers, T. de Boer, J.
        Bulger, J. Fairlamb, H. Gao, M. Huber, C.-C. Lin, T. Lowe, E. Magnier, P.
        Minguez, Y. Ramanjooloo, A. Schultz, I. Smith, R. Wainscoat, R. Weryk, S.
        Chastel.  1.8-m Ritchey-Chretien + CCD.
    F52 Pan-STARRS 2, Haleakala.  Observers J. Bulger, T. Lowe, A. Schultz, I.
        Smith.  Measurers K. Chambers, S. Chastel, T. de Boer, J. Fairlamb, H.
        Gao, M. Huber, C.-C. Lin, E. Magnier, Y. Ramanjooloo, R. Wainscoat, R.
        Weryk.  1.8-m Ritchey-Chretien + CCD.
    G96 Mt. Lemmon Survey.  Observer J. K. Hogan.  Measurers E. J. Christensen, D.
        Fay, J. B. Fazekas, D. C. Fuls, A. R. Gibbs, A. D. Grauer, H. Groeller, J.
        K. Hogan, R. A. Kowalski, S. M. Larson, G. J. Leonard, D. Rankin, R. L.
        Seaman, A. Serrano, F. C. Shelly, K. W. Wierzchos.  1.5-m reflector + 10K
        CCD.
    H21 Astronomical Research Observatory, Westfield.  Observer R. Holmes.
        Measurers T. Linder, R. Holmes, L. Horn.  1.3-m f/4.0 astrograph + CCD.
    I52 Steward Observatory, Mt. Lemmon Station.  Observer J. B. Fazekas.
        Measurers E. J. Christensen, D. Fay, J. B. Fazekas, D. C. Fuls, A. R.
        Gibbs, A. D. Grauer, H. Groeller, J. K. Hogan, R. A. Kowalski, S. M.
        Larson, G. J. Leonard, D. Rankin, R. L. Seaman, A. Serrano, F. C. Shelly,
        K. W. Wierzchos.  1.0-m prime focus + CCD.
    J04 ESA Optical Ground Station, Tenerife.  Observers D. Abreu, F. Ocana, M.
        Micheli, L. Conversi.  Measurers M. Micheli, F. Ocana, R. Kresken, M.
        Busch, A. Knofel, E. Schwab.  1.0-m f/4.4 reflector + CCD.
    
    Orbital elements:
    2023 JG6                                                 Earth MOID = 0.0601 AU
    Epoch 2023 Feb. 25.0 TT = JDT 2460000.5                 Bell                    
    M 316.55772              (2000.0)            P               Q                  
    n   0.31953059     Peri.  212.43680     +0.32823519     +0.93396423             
    a   2.1189844      Node    77.06037     -0.83276927     +0.35673281             
    e   0.5063323      Incl.    8.33764     -0.44582172     +0.02127264             
    P   3.08           H   23.54          G   0.15           U   8                  
    Residuals in seconds of arc
    230513 F52  0.3+  0.0     230521 J04  0.3-  0.0     230522 I52  0.0   0.1+
    230513 F52  0.2+  0.2-    230521 J04  0.2-  0.2+    230522 G96  0.1-  0.3+
    230513 F52  0.1-  0.0     230522 H21  0.0   0.2-    230522 G96  0.2-  0.3+
    230521 F51  1.5+  0.6-    230522 I52  0.1+  0.0     230522 G96  0.3-  0.4+
    230521 F51  0.1+  0.4+    230522 H21  0.0   0.4+    230522 G96  0.0   0.3-
    230521 F51  0.1+  0.2+    230522 I52  0.4+  0.1+    230522 F51  0.1+  0.1-
    230521 F51  0.1-  0.0     230522 H21  0.4+  0.3+    230522 F51  0.2+  0.0
    230521 F51  0.1-  0.2-    230522 I52  0.7-  0.2+    230522 F51  0.1-  0.2-
    
    Ephemeris:
    2023 JG6                 a,e,i = 2.12, 0.51, 8                   q = 1.0461
    Date    TT    R. A. (2000) Decl.     Delta      r    Elong.  Phase     V
    2023 04 22    15 22 29.8 +01 17 38   0.4049  1.3824   154.9    18.0    23.2
    ...
    2023 05 07    15 22 05.5 +01 34 16   0.2896  1.2854   160.5    15.2    22.2
    ...
    2023 05 15    15 19 31.3 +00 48 20   0.2376  1.2372   160.5    15.8    21.7
    ...
    2023 05 21    15 16 45.9 -00 32 11   0.2025  1.2032   159.0    17.5    21.4
    2023 05 22    15 16 15.7 -00 50 50   0.1969  1.1977   158.7    17.9    21.3
    2023 05 23    15 15 45.0 -01 11 16   0.1914  1.1923   158.3    18.3    21.3
    ...
    2023 05 29    15 12 38.0 -03 58 22   0.1602  1.1614   155.9    20.9    20.9
    ...
    2023 06 06    15 08 58.4 -10 31 28   0.1228  1.1247   152.2    24.9    20.4
    ...
    2023 06 21    15 10 23.9 -41 32 28   0.07140 1.0728   141.2    36.5    19.4
    
    M. P. C. Staff               (C) Copyright 2023 MPC           M.P.E.C. 2023-K88
    


    Read MPEC 2023-K87 Read MPEC 2023-K89


    MPEC number:

    Enter an MPEC number in one of the following forms:

    • 1997-B01 (the full form)
    • J97B01 (the packed version of the full form)
    • B01 (the abbreviated form)